Weather History for Randolph AFB, TX

Change the Weather History Date:

Wednesday, March 6, 2013

  Actual Average Record
Temperature  
Mean Temperature 47 °F -  
Max Temperature 62 °F 67 °F 85 °F (2009)
Min Temperature 32 °F 47 °F 32 °F (2011)
Degree Days  
Heating Degree Days 18    
Moisture  
Dew Point 16 °F    
Average Humidity 36    
Maximum Humidity 51    
Minimum Humidity 12    
Precipitation  
Precipitation 0.00 in - - ()
Sea Level Pressure  
Sea Level Pressure 30.35 in    
Wind  
Wind Speed 9 mph (NNW)    
Max Wind Speed 15 mph    
Max Gust Speed 21 mph    
Visibility 7 miles    
Events      
Averages and records for this station are not official NWS values.
T = Trace of Precipitation, MM = Missing Value Source: NWS Daily Summary

Daily Weather History Graph

Daily Weather History Graph

Search for Another Location

Airport:

Trip Planner

Search our weather history database for the weather conditions in past years. The results will help you decide how hot, cold, wet, or windy it might be!

Date:

Astronomy

Mar. 06, 2013 Rise Set
Actual Time 6:52 AM CST 6:36 PM CST
Civil Twilight 6:29 AM CST 6:59 PM CST
Nautical Twilight 6:01 AM CST 7:27 PM CST
Astronomical Twilight 5:33 AM CST 7:55 PM CST
Moon 2:44 AM CST (3/6) 1:37 PM CST (3/6)
Length of Visible Light 12h 30m
Length of Day
11h 43m
Waning Crescent, 29% of the Moon is Illuminated
Mar 6
Waning Crescent
Mar 11
New
Mar 19
First Quarter
Mar 27
Full
Apr 2
Last Quarter

Hourly Weather History & Observations

Time (CST) Temp. Windchill Dew Point Humidity Pressure Visibility Wind Dir Wind Speed Gust Speed Precip Events Conditions
12:03 AM 42.8 °F 38.0 °F 14.0 °F 31% 30.36 in 5.0 mi NNW 8.1 mph - N/A   Haze
12:08 AM 42.8 °F 37.5 °F 14.0 °F 31% 30.36 in 5.0 mi NNW 9.2 mph - N/A   Haze
12:13 AM 41.0 °F 35.8 °F 14.0 °F 33% 30.36 in 4.0 mi NNW 8.1 mph - N/A   Haze
12:58 AM 36.7 °F 28.9 °F 15.8 °F 43% 30.37 in 4.0 mi NW 11.5 mph - N/A   Haze
1:28 AM 35.6 °F 27.1 °F 15.8 °F 44% 30.36 in 3.0 mi NW 12.7 mph - N/A   Haze
1:58 AM 35.4 °F 28.4 °F 14.0 °F 41% 30.36 in 3.0 mi NW 9.2 mph - N/A   Haze
2:18 AM 37.4 °F 30.3 °F 12.2 °F 36% 30.36 in 4.0 mi NNW 10.4 mph - N/A   Haze
2:28 AM 37.4 °F 30.3 °F 12.2 °F 36% 30.36 in 4.0 mi NNW 10.4 mph - N/A   Haze
2:33 AM 37.4 °F 30.3 °F 14.0 °F 38% 30.36 in 4.0 mi NNW 10.4 mph - N/A   Haze
2:43 AM 37.4 °F 30.3 °F 14.0 °F 38% 30.35 in 4.0 mi NNW 10.4 mph - N/A   Haze
2:53 AM 37.4 °F 29.8 °F 14.0 °F 38% 30.35 in 4.0 mi NNW 11.5 mph - N/A   Haze
2:58 AM 36.9 °F 30.1 °F 13.6 °F 39% 30.35 in 5.0 mi NNW 9.2 mph - N/A   Haze
3:23 AM 35.6 °F 29.2 °F 14.0 °F 41% 30.34 in 5.0 mi NNW 8.1 mph - N/A   Haze
3:28 AM 35.6 °F 29.2 °F 14.0 °F 41% 30.34 in 4.0 mi NNW 8.1 mph - N/A   Haze
3:33 AM 35.6 °F 29.9 °F 14.0 °F 41% 30.34 in 4.0 mi NNW 6.9 mph - N/A   Haze
3:38 AM 35.6 °F 29.9 °F 14.0 °F 41% 30.34 in 4.0 mi NNW 6.9 mph - N/A   Haze
3:43 AM 35.6 °F 29.9 °F 14.0 °F 41% 30.34 in 5.0 mi NNW 6.9 mph - N/A   Haze
3:48 AM 35.6 °F 29.2 °F 14.0 °F 41% 30.34 in 4.0 mi NNW 8.1 mph - N/A   Haze
3:53 AM 35.6 °F 29.2 °F 14.0 °F 41% 30.34 in 3.0 mi NNW 8.1 mph - N/A   Haze
3:58 AM 35.6 °F 29.2 °F 13.8 °F 41% 30.35 in 3.0 mi NNW 8.1 mph - N/A   Haze
4:23 AM 32.0 °F 24.8 °F 14.0 °F 48% 30.34 in 4.0 mi NNW 8.1 mph - N/A   Haze
4:43 AM 33.8 °F 27.0 °F 14.0 °F 44% 30.35 in 4.0 mi NNW 8.1 mph - N/A   Haze
4:48 AM 32.0 °F 24.8 °F 14.0 °F 48% 30.35 in 4.0 mi NNW 8.1 mph - N/A   Haze
4:58 AM 34.7 °F 28.1 °F 14.0 °F 43% 30.37 in 4.0 mi NNW 8.1 mph - N/A   Haze
5:03 AM 33.8 °F 27.7 °F 14.0 °F 44% 30.36 in 4.0 mi NNW 6.9 mph - N/A   Haze
5:23 AM 32.0 °F 24.2 °F 14.0 °F 48% 30.38 in 4.0 mi NNW 9.2 mph - N/A   Haze
5:38 AM 33.8 °F 27.0 °F 14.0 °F 44% 30.38 in 5.0 mi NNW 8.1 mph - N/A   Haze
5:58 AM 33.3 °F 25.1 °F 15.3 °F 48% 30.40 in 5.0 mi NNW 10.4 mph - N/A   Haze
6:03 AM 32.0 °F 23.6 °F 15.8 °F 51% 30.39 in 6.0 mi NNW 10.4 mph - N/A   Haze
6:08 AM 32.0 °F 23.6 °F 15.8 °F 51% 30.39 in 9.0 mi NNW 10.4 mph - N/A   Clear
6:13 AM 32.0 °F 23.6 °F 15.8 °F 51% 30.39 in 10.0 mi North 10.4 mph - N/A   Clear
6:58 AM 34.2 °F 26.8 °F 16.9 °F 49% 30.40 in 10.0 mi North 9.2 mph - N/A   Clear
7:58 AM 42.4 °F 36.5 °F 17.8 °F 37% 30.44 in 10.0 mi North 10.4 mph - N/A   Clear
8:58 AM 45.9 °F 39.4 °F 18.5 °F 34% 30.44 in 10.0 mi NE 15.0 mph 20.7 mph N/A   Partly Cloudy
9:58 AM 50.4 °F - 19.0 °F 29% 30.46 in 10.0 mi NE 12.7 mph 19.6 mph N/A   Clear
10:58 AM 54.9 °F - 18.9 °F 24% 30.45 in 10.0 mi NE 13.8 mph - N/A   Clear
11:21 AM 55.4 °F - 17.6 °F 23% 30.43 in 10.0 mi ENE 12.7 mph - N/A   Clear
11:58 AM 57.2 °F - 17.8 °F 21% 30.42 in 10.0 mi NE 10.4 mph 16.1 mph N/A   Clear
12:58 PM 61.0 °F - 18.0 °F 19% 30.37 in 10.0 mi East 10.4 mph - N/A   Partly Cloudy
1:58 PM 62.2 °F - 16.3 °F 17% 30.32 in 10.0 mi ESE 8.1 mph - N/A   Partly Cloudy
2:58 PM 62.6 °F - 9.5 °F 12% 30.27 in 10.0 mi SE 5.8 mph - N/A   Clear
3:58 PM 62.1 °F - 13.8 °F 15% 30.25 in 10.0 mi SE 6.9 mph - N/A   Clear
4:58 PM 61.9 °F - 15.4 °F 16% 30.25 in 10.0 mi SSE 8.1 mph - N/A   Clear
5:58 PM 61.2 °F - 15.8 °F 17% 30.25 in 10.0 mi SSE 6.9 mph - N/A   Clear
6:58 PM 56.7 °F - 18.0 °F 22% 30.25 in 10.0 mi South 4.6 mph - N/A   Clear
7:58 PM 55.6 °F - 18.3 °F 23% 30.24 in 10.0 mi SSW 4.6 mph - N/A   Clear
8:58 PM 53.8 °F - 19.8 °F 26% 30.25 in 10.0 mi South 4.6 mph - N/A   Clear
9:58 PM 49.5 °F - 19.0 °F 30% 30.25 in 10.0 mi SSW 2.3 mph - N/A   Clear
10:58 PM 45.5 °F 43.2 °F 22.5 °F 40% 30.24 in 10.0 mi South 4.6 mph - N/A   Clear
11:58 PM 48.9 °F - 25.7 °F 40% 30.23 in 10.0 mi SSW 5.8 mph - N/A   Clear